RH
46 47 41 39 42 43 41 38 36 33 33 31 32 35 36 35 35 35 37 34 35 35 36 36 35 35 35 33 32 32 33 33 33 34 34 34 32 31 35 37 34 32 29 27
46 43 42 42 42 41 39 38 35 34 32 36 36 36 36 34 34 35 38 38 38 39 37 36 38 39 35 32 33 35 32 30 32 36 35 32 31 32 33 32 35 35 32 27
42 38 40 42 41 40 37 38 38 38 39 37 37 36 35 41 40 41 38 39 40 40 39 39 42 38 36 35 34 33 35 34 36 35 34 36 38 39 37 32 28 35 34 26
39 38 39 40 41 40 39 39 40 41 44 48 44 52 44 44 42 38 39 39 40 40 38 40 40 37 37 37 37 37 40 41 43 44 45 47 46 46 44 39 30 37 39 32
39 41 42 43 43 42 44 44 46 47 48 49 45 54 50 48 44 40 38 39 41 42 44 42 41 40 41 43 43 44 47 50 50 46 31 14 8 3 2 2 2 3 10 18
31 38 44 44 44 46 47 49 52 53 51 59 45 52 52 42 40 40 38 39 41 42 43 44 43 44 47 47 50 54 55 47 25 4 2 4 6 7 7 6 6 5 5 9
51 46 40 51 50 52 50 52 59 68 60 59 45 51 50 42 42 37 35 37 41 43 45 44 45 48 46 49 53 57 46 16 3 3 6 14 14 15 13 12 11 11 11 10
59 52 50 53 52 51 50 53 57 88 93 67 61 53 45 42 43 43 41 41 44 45 45 47 48 48 55 59 59 46 9 5 6 10 30 45 19 13 11 11 13 22 44 28
58 48 48 53 56 51 53 48 53 62 65 70 58 52 51 44 42 43 48 50 51 53 52 49 58 62 67 57 31 12 7 7 16 33 36 22 16 11 19 41 39 36 45 43
61 59 52 54 56 48 44 57 64 71 99 96 54 51 48 47 45 45 46 50 55 57 63 67 70 72 59 27 11 7 8 16 22 17 24 17 12 30 58 49 41 51 49 80
60 61 61 51 48 48 51 51 63 83 93 100 94 60 50 50 55 55 60 62 68 74 74 80 76 61 50 13 7 8 10 21 16 11 15 14 34 68 71 63 63 74 82 64
63 65 80 72 58 54 67 64 57 84 97 98 86 79 68 66 65 67 72 77 88 97 96 78 63 60 32 9 8 8 14 26 15 14 13 20 79 76 76 74 55 53 61 74
70 75 77 63 61 70 71 56 70 70 75 98 98 85 75 76 79 79 84 92 100 96 81 71 65 51 11 8 10 12 21 26 15 12 11 40 69 68 71 69 41 39 43 43
81 83 78 74 72 77 81 69 80 84 97 88 98 96 90 93 99 99 100 99 96 89 80 65 58 27 11 11 12 17 21 27 14 9 18 55 68 60 68 67 53 46 49 50
78 77 82 86 88 79 90 89 80 84 73 100 76 92 86 91 100 100 100 96 81 58 55 58 52 11 10 11 15 21 23 29 26 33 50 61 68 61 61 68 60 55 59 55
87 93 92 87 78 94 91 94 81 75 83 92 80 94 80 97 98 99 98 84 69 63 65 58 14 8 10 14 16 21 25 33 37 44 69 68 71 72 72 72 66 62 47 36
90 92 91 98 97 91 97 70 68 68 72 72 97 63 92 93 95 100 99 87 72 59 48 8 6 11 14 16 18 22 26 36 42 44 66 82 82 88 84 73 44 36 40 40
96 90 100 99 98 93 65 65 72 71 65 79 98 84 79 75 74 78 74 60 50 32 11 6 14 16 18 18 19 23 27 33 39 41 43 49 48 48 47 27 17 15 12 12
100 86 99 99 96 87 80 68 68 66 67 65 60 68 64 60 59 56 45 26 15 10 11 13 14 20 21 19 20 23 31 30 36 42 37 32 28 31 24 14 14 14 14 12
85 90 99 99 97 90 74 76 69 64 70 73 58 31 12 5 9 10 9 8 10 18 24 26 23 23 26 29 29 22 30 37 34 31 29 21 19 17 18 17 17 17 15 13
85 94 95 97 98 90 94 93 92 85 73 57 33 22 10 8 10 11 13 14 16 24 33 50 58 46 54 60 67 49 51 49 40 27 22 22 21 20 20 21 23 23 20 16
90 96 96 98 98 94 87 91 88 79 56 37 24 22 27 39 41 47 49 58 69 69 67 78 97 89 77 92 99 99 86 65 58 38 27 25 24 23 22 24 28 27 25 21
99 96 95 95 96 97 95 93 77 56 32 23 40 47 44 56 59 67 77 86 77 70 93 93 91 97 98 79 97 98 91 83 74 62 36 30 27 27 28 30 33 32 29 23
99 98 98 98 97 96 95 73 46 38 41 53 57 57 55 46 63 66 66 72 83 96 96 98 94 100 98 79 87 97 94 87 81 69 63 40 34 35 38 39 38 36 33 28
97 98 96 96 92 64 52 38 28 21 29 37 40 46 74 85 88 88 88 90 87 88 87 86 96 93 83 83 85 84 96 87 72 62 72 65 42 44 48 47 44 41 39 35
96 97 92 68 40 32 29 30 28 28 28 51 73 83 91 93 85 83 91 88 89 94 97 95 93 96 97 98 98 100 97 81 69 62 70 90 85 61 59 57 52 48 45 43
Wind_Speed
5 8 10 6 12 21 22 17 16 17 13 17 16 14 11 15 11 21 23 32 35 34 34 34 37 38 31 25 20 15 15 18 18 20 22 24 24 25 28 31 34 34 34 34
9 11 9 11 12 17 20 22 18 17 17 22 24 23 21 23 24 27 28 34 37 35 36 38 37 33 31 21 20 19 22 27 29 29 30 32 34 36 37 37 41 41 42 44
14 11 7 12 16 19 20 19 19 19 22 28 28 30 26 23 25 21 31 33 36 37 38 38 35 29 28 22 26 27 28 33 35 35 38 41 41 43 44 46 46 49 51 53
11 14 14 14 17 13 17 14 20 25 23 22 29 24 38 30 25 29 34 36 37 39 40 35 30 29 26 34 35 31 32 34 36 39 39 42 46 48 49 57 56 54 58 60
11 8 8 12 15 15 19 21 22 24 28 31 34 25 34 29 25 33 36 37 36 34 31 29 28 26 27 31 37 33 35 36 40 44 46 52 54 53 54 56 56 57 60 61
12 11 19 12 13 17 20 20 18 22 21 12 31 20 17 11 25 36 37 34 33 31 31 25 24 29 32 37 37 43 45 50 53 54 46 44 45 45 47 47 46 46 49 54
9 13 14 17 14 12 6 8 9 5 4 6 12 13 10 8 18 25 26 31 31 28 24 24 27 28 33 39 47 46 52 53 50 46 44 35 35 37 40 43 45 45 44 41
10 10 4 7 9 8 9 7 6 5 4 10 28 10 6 9 22 25 28 30 29 25 24 26 29 33 41 44 44 50 47 44 46 44 41 40 35 37 39 42 43 39 39 38
8 6 4 5 9 10 3 11 18 21 28 15 14 15 4 15 22 26 27 26 25 25 25 27 36 40 42 40 47 38 41 43 43 42 41 37 35 38 42 38 33 31 31 29
18 15 15 14 12 10 10 11 9 10 5 5 7 12 11 16 24 26 24 26 27 28 29 33 39 39 35 40 35 38 41 42 43 44 38 33 35 37 29 22 17 17 15 17
22 17 13 17 15 16 20 13 9 15 11 4 3 5 13 23 16 17 23 28 29 31 35 34 33 31 38 34 34 36 40 39 42 38 28 30 31 20 19 17 14 11 17 19
21 12 14 22 18 13 9 7 14 13 13 16 16 17 22 28 25 19 19 24 27 30 28 29 30 36 38 34 34 36 37 39 36 30 28 31 22 17 12 19 14 14 17 18
22 11 7 7 7 10 11 28 23 25 29 32 18 12 14 16 23 27 27 27 31 27 28 31 34 37 33 34 35 35 34 37 32 30 32 28 20 18 10 9 8 9 10 12
23 26 26 25 23 27 35 36 36 29 24 40 37 44 37 28 32 36 33 30 25 26 32 32 33 33 29 33 34 34 34 36 30 29 31 24 15 14 8 11 13 14 15 18
26 32 33 36 36 38 38 44 44 41 47 36 50 49 47 35 32 40 38 40 23 24 29 31 38 29 30 32 32 32 32 30 27 27 25 19 13 8 4 6 13 18 21 24
29 33 33 40 36 39 44 45 54 53 42 42 44 51 41 42 24 37 27 28 31 35 37 41 38 28 30 29 30 29 29 28 26 22 20 15 12 12 10 12 15 21 25 24
33 30 29 35 31 39 35 44 40 31 25 26 35 32 30 30 23 34 35 34 38 39 41 36 28 28 28 28 29 29 28 26 23 20 19 13 11 13 16 17 19 18 17 16
35 29 28 29 33 22 36 17 14 19 18 15 23 21 19 20 23 26 31 34 37 39 33 30 27 29 28 31 30 28 29 26 23 20 19 21 17 16 14 13 12 12 13 15
39 36 28 22 31 40 45 31 28 28 24 20 18 21 28 30 31 33 36 35 34 33 32 32 33 31 32 32 34 29 27 25 23 21 19 18 17 15 14 14 14 15 15 16
26 27 28 20 13 12 18 14 15 16 21 21 13 17 22 25 29 29 31 31 31 33 34 36 36 35 36 36 36 34 24 24 23 21 20 19 18 17 16 15 15 16 17 18
22 21 31 38 19 23 21 20 19 12 13 11 23 28 27 23 24 25 27 30 30 31 33 35 38 38 36 30 33 36 32 26 27 24 22 21 21 21 21 19 18 19 19 18
29 22 24 17 13 12 16 17 14 13 20 27 25 24 25 26 28 29 30 30 30 33 38 36 38 37 35 25 29 35 43 36 33 30 25 24 24 24 24 23 22 21 21 20
28 34 24 19 11 14 14 15 20 24 26 24 24 24 27 30 32 31 30 31 37 39 27 33 38 37 36 36 33 37 41 44 42 36 30 28 27 27 26 26 24 23 23 22
33 28 23 21 18 20 20 20 19 18 19 20 24 28 32 33 30 35 37 34 33 32 34 38 42 43 43 41 42 36 39 42 43 38 34 30 29 28 27 27 26 25 24 23
27 25 25 22 19 20 24 26 24 20 22 25 28 28 26 28 30 33 34 36 40 43 44 45 39 44 42 33 34 39 40 39 43 39 32 32 31 29 28 28 27 26 26 27
24 19 14 17 18 17 17 19 22 25 24 24 25 26 27 32 38 40 39 40 46 47 43 44 43 27 24 30 31 36 37 40 44 41 35 34 33 29 31 30 28 28 28 27
Wind_Direction
55 287 308 282 275 289 286 297 308 285 275 292 252 258 288 275 272 274 252 255 251 260 267 271 276 286 294 297 299 304 302 301 298 282 279 276 281 283 285 285 284 285 285 290
257 254 329 314 293 281 280 300 296 291 289 297 303 295 280 268 269 261 261 257 251 253 260 267 272 278 288 287 312 313 308 312 307 293 289 289 290 292 291 289 284 278 276 281
242 270 279 249 265 280 286 288 296 301 295 283 296 293 286 283 285 271 244 240 242 250 257 260 265 277 283 294 304 304 295 307 305 297 289 289 289 291 286 286 286 277 276 278
259 255 253 265 292 278 277 296 289 297 307 301 289 286 282 273 254 252 236 237 239 244 252 260 272 282 288 301 301 300 300 301 299 293 291 290 286 283 276 281 281 269 266 270
226 228 268 265 285 289 280 282 288 287 288 289 283 277 271 280 227 234 234 234 238 244 255 265 273 275 287 289 299 305 300 299 296 295 297 294 291 291 288 285 281 278 273 272
250 280 256 265 269 278 296 299 294 296 286 262 276 288 300 247 240 224 227 236 241 246 253 262 277 292 300 306 313 311 310 314 313 312 316 310 305 298 293 292 287 284 282 278
273 279 281 248 236 266 274 324 321 299 269 245 288 329 266 261 237 235 236 236 242 247 258 269 280 289 300 306 302 304 309 311 312 323 321 315 305 296 297 300 300 301 297 286
286 295 191 218 237 242 284 309 282 305 302 294 305 280 251 200 202 214 228 237 242 254 265 276 285 295 298 301 303 312 316 319 328 329 325 319 315 309 305 300 297 296 298 295
259 231 220 225 216 259 233 279 289 297 290 277 243 248 147 203 220 231 237 243 249 256 264 276 291 299 306 311 321 316 321 325 330 328 320 318 316 316 308 303 299 290 292 299
223 245 245 238 242 281 298 309 280 281 293 257 239 251 249 226 229 236 252 258 267 274 281 293 296 304 315 323 315 320 325 329 325 322 317 320 320 316 324 319 316 323 308 301
235 243 257 255 255 285 301 316 296 296 265 264 281 233 260 288 271 259 259 263 267 276 283 292 301 310 320 314 315 322 326 326 323 319 320 320 318 321 344 351 344 335 325 316
244 257 254 262 274 283 275 314 321 276 279 248 274 272 264 266 271 262 240 246 257 264 280 295 305 312 315 309 316 322 325 323 323 317 318 324 309 323 320 332 344 329 314 310
240 249 270 282 255 228 281 307 307 308 288 280 262 259 258 275 276 269 266 266 281 280 282 290 298 310 313 309 315 323 326 321 317 312 316 314 303 318 306 309 314 304 313 318
251 251 260 257 270 282 285 295 303 301 279 280 261 271 263 266 277 283 271 288 282 262 272 288 303 311 304 310 320 324 320 322 318 310 312 308 292 299 306 291 284 300 307 306
263 266 265 272 279 281 284 292 294 287 289 258 273 265 272 267 283 289 291 295 289 261 277 294 307 300 302 312 314 317 319 317 317 313 305 306 287 292 302 294 288 293 298 301
261 264 271 280 280 283 296 294 296 296 288 271 272 275 283 291 288 281 278 273 266 273 287 297 296 291 299 302 306 313 315 309 315 313 313 302 296 259 273 284 289 293 298 302
264 268 281 280 284 294 294 296 295 291 283 279 263 287 300 290 272 261 263 263 270 281 290 287 287 289 295 302 306 308 311 306 308 310 311 301 298 267 268 283 292 297 300 306
266 270 281 279 300 280 293 279 286 289 281 269 267 275 277 279 271 261 263 269 279 286 286 287 291 295 300 301 303 302 305 303 300 299 296 294 293 286 283 284 291 296 302 304
260 272 268 267 272 276 286 283 272 272 261 265 264 265 272 277 280 283 289 296 293 293 293 293 291 294 295 299 301 302 291 294 294 292 290 288 288 285 280 283 290 298 301 305
251 253 250 257 267 277 287 288 284 275 272 278 271 289 287 287 276 278 281 284 287 289 288 290 293 291 294 295 293 294 290 288 289 286 283 281 279 279 277 281 288 293 297 301
252 259 257 254 244 268 267 283 280 274 291 292 305 303 303 294 292 294 292 292 293 295 297 297 296 295 304 296 301 299 300 291 286 282 276 275 275 274 275 279 283 288 292 298
261 266 253 238 235 261 260 269 281 292 300 305 306 310 310 307 306 304 302 301 299 298 298 297 292 296 309 287 278 281 288 292 293 281 275 272 271 273 276 280 287 291 295 298
251 248 251 232 234 233 268 281 291 297 305 311 312 309 307 306 305 305 303 293 293 296 292 282 281 281 296 288 282 276 280 286 294 283 273 270 270 271 273 277 281 285 291 296
260 256 233 238 247 255 282 276 280 285 282 284 285 284 287 291 286 284 287 291 294 289 288 287 290 289 293 294 272 277 276 278 288 291 278 273 269 269 271 273 276 280 285 289
252 249 251 253 271 275 268 272 275 285 295 288 286 295 304 301 297 287 285 283 282 281 285 292 291 294 287 283 282 275 272 273 282 290 290 278 269 269 269 270 272 274 278 281
253 256 246 265 271 257 260 271 292 300 300 294 293 288 279 282 288 289 284 287 290 285 288 295 297 286 278 282 286 276 261 271 282 286 290 292 271 274 270 268 267 270 273 277